User: anonymous   Login
Location: Berlin
(52.5170°N, 13.4000°E)
Time: 13:22:45
(UTC+02:00)
Language:

ISS - Orbit

View from above orbital plane
View from above orbital plane
View from above satellite
View from above satellite

Ground track
Ground track

The orbit data is extracted from the following two-line orbital elements,

1 25544U 98067A   18231.60943648  .00016717  00000-0  10270-3 0  9024
2 25544  51.6372  62.6368 0005537  75.0301 285.1464 15.53888175  8372
Epoch (UTC): 19 August 2018 14:37:35
Eccentricity: 0.0005537
inclination: 51.6372°
perigee height: 401 km
apogee height: 409 km
right ascension of ascending node: 62.6368°
argument of perigee: 75.0301°
revolutions per day: 15.53888175
mean anomaly at epoch: 285.1464°
orbit number at epoch: 837

The dashed part of the orbit path shows where the satellite is in the earth's shadow,  

DLR